Simultaneous Nadir Overpasses (SNOs) Predictions

Prediction of SNOs between AQUA and METOP-B Satellite Orbit:

Table of predicted SNOs for the next 14.0 days since TLE Epoch: 11/8/2025
Index Date (AQUA) Time (AQUA) Lat,Lon (AQUA) SZA (AQUA ) Date (METOP-B) Time (METOP-B) Lat,Lon (METOP-B) SZA (METOP-B ) Distance(km) Time Diff (sec)
1 11/08/2025 16:58:07 -78.03, 106.53 85.21 11/08/2025 16:57:47 -78.04, 106.48 85.21 1.53 20
2 11/08/2025 17:47:26 78.09, -86.07 94.85 11/08/2025 17:48:27 78.07, -86.04 94.84 2.63 61
3 11/11/2025 04:06:48 -78.02, -60.50 84.53 11/11/2025 04:05:37 -78.04, -60.49 84.52 2.24 71
4 11/11/2025 04:56:07 78.08, 106.89 95.54 11/11/2025 04:56:17 78.07, 106.99 95.53 2.76 10
5 11/13/2025 16:04:46 78.04, -60.00 96.16 11/13/2025 16:04:07 78.06, -60.02 96.18 2.59 39
6 11/13/2025 16:54:04 -78.08, 107.46 83.80 11/13/2025 16:54:48 -78.07, 107.37 83.81 2.59 44
7 11/16/2025 04:02:42 -78.05, -59.47 83.20 11/16/2025 04:02:37 -78.09, -59.48 83.16 4.58 5
8 11/16/2025 04:52:04 78.24, 107.24 97.00 11/16/2025 04:53:13 78.28, 108.89 97.07 37.45 69
9 11/18/2025 15:11:20 -78.07, 133.34 82.58 11/18/2025 15:10:27 -78.06, 133.42 82.59 2.12 53
10 11/18/2025 16:00:38 78.10, -59.10 97.45 11/18/2025 16:01:07 78.10, -59.07 97.46 0.85 29
11 11/21/2025 03:09:14 78.09, 133.86 98.01 11/21/2025 03:08:57 78.07, 133.80 97.98 2.88 17



Historial Predications of SNOs between AQUA and METOP-B
